Weather History for KVYS - December, 2012

Change the Weather History Date:

Thursday, December 6, 2012

  Actual Average Record
Temperature  
Mean Temperature 42 °F -  
Max Temperature 50 °F 39 °F 62 °F (1980)
Min Temperature 34 °F 23 °F -5 °F (1977)
Degree Days  
Heating Degree Days 23    
Moisture  
Dew Point 35 °F    
Average Humidity 75    
Maximum Humidity 85    
Minimum Humidity 59    
Precipitation  
Precipitation 0.00 in - - ()
Sea Level Pressure  
Sea Level Pressure 30.01 in    
Wind  
Wind Speed 10 mph (South)    
Max Wind Speed 15 mph    
Max Gust Speed 18 mph    
Visibility 10 miles    
Events Rain    
Averages and records for this station are not official NWS values.
T = Trace of Precipitation, MM = Missing Value Source: NWS Daily Summary

Daily Weather History Graph

Daily Weather History Graph

Search for Another Location

Airport or City:

Trip Planner

Search our weather history database for the weather conditions in past years. The results will help you decide how hot, cold, wet, or windy it might be!

Date:

Astronomy

Dec. 06, 2012 Rise Set
Actual Time 7:08 AM CST 4:27 PM CST
Civil Twilight 6:37 AM CST 4:58 PM CST
Nautical Twilight 6:02 AM CST 5:32 PM CST
Astronomical Twilight 5:29 AM CST 6:06 PM CST
Moon No Moon Rise 11:57 AM CST (12/6)
Length of Visible Light 10h 20m
Length of Day
9h 18m
Waning Gibbous, 49% of the Moon is Illuminated
Dec 6
Waning Gibbous
Dec 13
New
Dec 19
First Quarter
Dec 28
Full
Jan 4
Last Quarter

Hourly Weather History & Observations

Time (CST) Temp. Windchill Dew Point Humidity Pressure Visibility Wind Dir Wind Speed Gust Speed Precip Events Conditions
12:15 AM 34.7 °F 28.1 °F 29.8 °F 82% 30.18 in 10.0 mi SE 8.1 mph - N/A   Clear
12:35 AM 35.6 °F 28.0 °F 30.0 °F 80% 30.18 in 10.0 mi SE 10.4 mph - N/A   Clear
12:55 AM 35.4 °F 26.8 °F 30.2 °F 81% 30.17 in 10.0 mi SE 12.7 mph - N/A   Scattered Clouds
1:15 AM 35.6 °F 27.5 °F 30.2 °F 81% 30.16 in 10.0 mi SE 11.5 mph - N/A   Mostly Cloudy
1:35 AM 35.6 °F 26.6 °F 30.2 °F 81% 30.16 in 10.0 mi SE 13.8 mph - N/A   Scattered Clouds
1:55 AM 35.6 °F 27.5 °F 30.2 °F 81% 30.17 in 10.0 mi SSE 11.5 mph 18.4 mph N/A   Clear
2:15 AM 35.6 °F 26.6 °F 30.2 °F 81% 30.16 in 10.0 mi SE 13.8 mph - N/A   Clear
2:35 AM 35.6 °F 27.5 °F 30.2 °F 81% 30.15 in 10.0 mi SE 11.5 mph - N/A   Clear
2:55 AM 35.6 °F 28.0 °F 30.2 °F 81% 30.15 in 10.0 mi SE 10.4 mph - N/A   Clear
3:15 AM 35.6 °F 28.6 °F 30.4 °F 81% 30.14 in 10.0 mi SE 9.2 mph - N/A   Clear
3:35 AM 35.6 °F 28.0 °F 30.2 °F 81% 30.13 in 10.0 mi SE 10.4 mph - N/A   Clear
3:55 AM 35.6 °F 28.0 °F 30.6 °F 82% 30.13 in 10.0 mi SE 10.4 mph - N/A   Clear
4:15 AM 35.2 °F 27.6 °F 30.6 °F 83% 30.13 in 10.0 mi SSE 10.4 mph - N/A   Clear
4:35 AM 35.2 °F 28.1 °F 30.6 °F 83% 30.13 in 10.0 mi SE 9.2 mph - N/A   Clear
4:55 AM 35.1 °F 27.9 °F 30.7 °F 84% 30.12 in 10.0 mi SE 9.2 mph - N/A   Clear
5:15 AM 35.1 °F 27.4 °F 30.6 °F 84% 30.11 in 10.0 mi SE 10.4 mph - N/A   Clear
7:35 AM 34.9 °F 26.6 °F 30.9 °F 85% 30.08 in 10.0 mi SSE 11.5 mph - N/A   Mostly Cloudy
7:55 AM 35.1 °F 27.9 °F 31.1 °F 85% 30.10 in 10.0 mi South 9.2 mph - N/A   Scattered Clouds
8:15 AM 35.2 °F 28.1 °F 31.1 °F 85% 30.10 in 10.0 mi SSE 9.2 mph - N/A   Scattered Clouds
8:35 AM 35.6 °F 28.0 °F 31.3 °F 84% 30.09 in 10.0 mi SSE 10.4 mph - N/A   Clear
8:55 AM 35.8 °F 28.8 °F 31.6 °F 85% 30.08 in 10.0 mi SSE 9.2 mph - N/A   Clear
9:15 AM 36.9 °F 30.1 °F 32.0 °F 83% 30.08 in 10.0 mi SSE 9.2 mph - N/A   Clear
9:35 AM 38.1 °F 31.7 °F 32.5 °F 80% 30.08 in 10.0 mi SSE 9.2 mph - N/A   Clear
9:55 AM 39.6 °F 32.1 °F 33.4 °F 79% 30.07 in 10.0 mi South 12.7 mph - N/A   Clear
10:15 AM 40.3 °F 33.9 °F 33.8 °F 78% 30.06 in 10.0 mi South 10.4 mph - N/A   Clear
10:35 AM 41.0 °F 34.3 °F 33.8 °F 76% 30.05 in 10.0 mi South 11.5 mph - N/A   Clear
10:55 AM 42.1 °F 36.6 °F 34.7 °F 75% 30.04 in 10.0 mi South 9.2 mph - N/A   Clear
11:15 AM 43.7 °F 37.7 °F 35.4 °F 73% 30.03 in 10.0 mi South 11.5 mph - N/A   Clear
11:35 AM 45.0 °F 39.3 °F 35.8 °F 70% 30.02 in 10.0 mi South 11.5 mph - N/A   Clear
11:55 AM 46.4 °F 40.1 °F 35.2 °F 65% 30.00 in 10.0 mi South 15.0 mph - N/A   Clear
12:15 PM 46.4 °F 40.1 °F 35.1 °F 65% 29.98 in 10.0 mi South 15.0 mph - N/A   Clear
12:55 PM 47.8 °F - 35.6 °F 63% 29.96 in 10.0 mi SSW 9.2 mph - N/A   Clear
1:15 PM 49.1 °F - 35.4 °F 59% 29.94 in 10.0 mi South 11.5 mph 16.1 mph N/A   Clear
1:35 PM 49.1 °F - 35.6 °F 60% 29.93 in 10.0 mi South 11.5 mph - N/A   Clear
1:55 PM 49.1 °F - 35.6 °F 60% 29.93 in 10.0 mi South 12.7 mph - N/A   Clear
2:15 PM 49.3 °F - 36.0 °F 60% 29.93 in 10.0 mi SSW 6.9 mph - N/A   Clear
2:35 PM 50.0 °F - 36.3 °F 59% 29.93 in 10.0 mi SSW 8.1 mph - N/A   Clear
2:55 PM 50.5 °F - 36.5 °F 59% 29.93 in 10.0 mi South 10.4 mph - N/A   Clear
3:15 PM 50.4 °F - 36.3 °F 59% 29.92 in 10.0 mi South 9.2 mph - N/A   Scattered Clouds
3:35 PM 49.8 °F - 36.5 °F 60% 29.92 in 10.0 mi South 8.1 mph - N/A   Mostly Cloudy
3:55 PM 49.5 °F - 36.5 °F 61% 29.92 in 10.0 mi South 10.4 mph - N/A   Overcast
4:15 PM 49.3 °F - 36.7 °F 62% 29.93 in 10.0 mi South 9.2 mph - N/A   Scattered Clouds
4:35 PM 48.2 °F - 37.4 °F 66% 29.92 in 10.0 mi South 11.5 mph - N/A   Mostly Cloudy
4:55 PM 48.4 °F - 37.4 °F 66% 29.92 in 10.0 mi South 9.2 mph - N/A   Overcast
5:15 PM 48.2 °F - 37.6 °F 67% 29.92 in 10.0 mi South 10.4 mph - N/A   Overcast
5:35 PM 48.2 °F - 37.4 °F 66% 29.92 in 10.0 mi South 10.4 mph - N/A   Mostly Cloudy
5:55 PM 48.2 °F - 39.2 °F 71% 29.92 in 10.0 mi SSW 8.1 mph - N/A   Overcast
6:15 PM 48.2 °F - 39.2 °F 71% 29.92 in 10.0 mi SSW 6.9 mph - N/A   Overcast
6:35 PM 47.3 °F - 38.8 °F 72% 29.92 in 10.0 mi SSW 9.2 mph - N/A   Overcast
6:55 PM 46.4 °F 41.9 °F 38.7 °F 74% 29.92 in 10.0 mi South 9.2 mph - N/A   Overcast
7:15 PM 46.0 °F 41.4 °F 38.8 °F 76% 29.91 in 10.0 mi South 9.2 mph - N/A   Overcast
7:55 PM 46.4 °F 41.9 °F 39.7 °F 78% 29.92 in 10.0 mi SSW 9.2 mph - N/A   Overcast
8:15 PM 46.4 °F 42.9 °F 40.1 °F 79% 29.93 in 10.0 mi WSW 6.9 mph - N/A   Overcast
8:35 PM 46.4 °F 42.9 °F 39.4 °F 77% 29.93 in 10.0 mi WSW 6.9 mph - N/A   Overcast
8:55 PM 46.6 °F - 39.7 °F 77% 29.93 in 10.0 mi WSW 5.8 mph - N/A   Overcast
9:15 PM 46.4 °F 44.3 °F 39.6 °F 77% 29.93 in 10.0 mi West 4.6 mph - N/A   Overcast
9:35 PM 46.6 °F - 39.7 °F 77% 29.93 in 10.0 mi WSW 5.8 mph - N/A   Overcast
9:55 PM 46.4 °F 42.9 °F 40.1 °F 79% 29.93 in 10.0 mi SW 6.9 mph - N/A   Overcast
10:15 PM 46.4 °F 42.9 °F 40.1 °F 79% 29.93 in 10.0 mi SW 6.9 mph - N/A   Overcast
10:35 PM 46.4 °F 42.4 °F 40.1 °F 79% 29.93 in 10.0 mi SW 8.1 mph - N/A   Overcast
10:55 PM 46.4 °F 42.4 °F 40.1 °F 79% 29.93 in 10.0 mi SW 8.1 mph - N/A   Overcast
11:15 PM 46.4 °F 42.4 °F 40.1 °F 79% 29.93 in 10.0 mi WSW 8.1 mph - N/A   Overcast
11:35 PM 46.4 °F 43.5 °F 40.3 °F 79% 29.93 in 10.0 mi WSW 5.8 mph - N/A Rain Light Rain
11:55 PM 45.7 °F 42.7 °F 41.0 °F 84% 29.93 in 7.0 mi WSW 5.8 mph - N/A   Drizzle